| time (UTC) | temp F | wind direction | speed MPH | gust MPH | rain 1hr in | rain 24hr in | rain mn in | humidity % | barometer mb |
| 20260903163038 | 64 | 82 | 0.0 | 2.0 | 0.00 | 0.29 | 0.29 | 96 | 1014.5 |
| 20260903162506 | 64 | 82 | 0.0 | 2.0 | 0.00 | 0.29 | 0.29 | 96 | 1014.6 |
| 20260903162008 | 64 | 82 | 0.0 | 2.0 | 0.00 | 0.29 | 0.29 | 97 | 1014.6 |
| 20260903161519 | 64 | 72 | 0.0 | 0.0 | 0.00 | 0.29 | 0.29 | 97 | 1014.7 |
| 20260903161010 | 64 | 181 | 0.0 | 0.0 | 0.00 | 0.29 | 0.29 | 97 | 1014.8 |
| 20260903160516 | 64 | 240 | 0.0 | 0.0 | 0.00 | 0.29 | 0.29 | 97 | 1014.8 |
| 20260903160025 | 63 | 101 | 0.0 | 0.0 | 0.00 | 0.29 | 0.29 | 97 | 1014.8 |
| 20260903155512 | 63 | 103 | 0.0 | 0.0 | 0.00 | 0.29 | 0.29 | 97 | 1014.9 |
| 20260903155015 | 63 | 105 | 0.0 | 0.0 | 0.00 | 0.29 | 0.29 | 97 | 1014.9 |
| 20260903154528 | 63 | 105 | 0.0 | 0.0 | 0.00 | 0.29 | 0.29 | 97 | 1015.0 |
| 20260903154013 | 63 | 106 | 0.0 | 0.0 | 0.00 | 0.29 | 0.29 | 97 | 1015.1 |
| 20260903153514 | 63 | 106 | 0.0 | 0.0 | 0.00 | 0.29 | 0.29 | 96 | 1015.2 |
| 20260903153031 | 62 | 106 | 0.0 | 0.0 | 0.00 | 0.29 | 0.29 | 96 | 1015.3 |
| 20260903152517 | 62 | 106 | 0.0 | 0.0 | 0.00 | 0.29 | 0.29 | 97 | 1015.3 |
| 20260903152020 | 62 | 106 | 0.0 | 0.0 | 0.00 | 0.29 | 0.29 | 96 | 1015.5 |
| 20260903151537 | 62 | 106 | 0.0 | 0.0 | 0.00 | 0.29 | 0.29 | 96 | 1015.5 |
| 20260903151007 | 62 | 106 | 0.0 | 0.0 | 0.00 | 0.29 | 0.29 | 97 | 1015.6 |
| 20260903150506 | 62 | 106 | 0.0 | 0.0 | 0.00 | 0.29 | 0.29 | 97 | 1015.6 |
| 20260903150035 | 62 | 106 | 0.0 | 0.0 | 0.00 | 0.29 | 0.29 | 97 | 1015.7 |
| 20260903145514 | 62 | 106 | 0.0 | 0.0 | 0.00 | 0.29 | 0.29 | 96 | 1015.7 |
| 20260903145003 | 62 | 106 | 0.0 | 0.0 | 0.00 | 0.29 | 0.29 | 96 | 1015.7 |
| 20260903144504 | 62 | 106 | 0.0 | 0.0 | 0.00 | 0.29 | 0.29 | 96 | 1015.7 |
| 20260903144003 | 62 | 106 | 0.0 | 0.0 | 0.00 | 0.29 | 0.29 | 96 | 1015.6 |
| 20260903143504 | 62 | 106 | 0.0 | 0.0 | 0.00 | 0.29 | 0.29 | 97 | 1015.6 |
| 20260903143009 | 61 | 106 | 0.0 | 0.0 | 0.00 | 0.29 | 0.29 | 96 | 1015.7 |
| 20260903142504 | 61 | 147 | 0.0 | 0.0 | 0.00 | 0.29 | 0.29 | 96 | 1015.7 |
| 20260903142004 | 61 | 147 | 0.0 | 0.0 | 0.00 | 0.29 | 0.29 | 96 | 1015.8 |
| 20260903141515 | 61 | 147 | 0.0 | 0.0 | 0.00 | 0.29 | 0.29 | 96 | 1015.8 |
| 20260903141010 | 61 | 126 | 0.0 | 0.0 | 0.00 | 0.29 | 0.29 | 96 | 1015.8 |
| 20260903140506 | 61 | 161 | 0.0 | 0.0 | 0.00 | 0.29 | 0.29 | 96 | 1015.7 |
| 20260903140021 | 61 | 161 | 0.0 | 2.0 | 0.00 | 0.29 | 0.29 | 96 | 1015.8 |
| 20260903135514 | 61 | 123 | 0.0 | 2.0 | 0.00 | 0.29 | 0.29 | 96 | 1015.9 |
| 20260903135010 | 61 | 86 | 0.0 | 3.0 | 0.00 | 0.29 | 0.29 | 96 | 1015.9 |
| 20260903134525 | 61 | 86 | 1.0 | 3.0 | 0.00 | 0.29 | 0.29 | 96 | 1015.9 |
| 20260903134014 | 61 | 99 | 0.0 | 2.0 | 0.00 | 0.29 | 0.29 | 96 | 1015.9 |
| 20260903133506 | 61 | 119 | 0.0 | 1.0 | 0.00 | 0.29 | 0.29 | 96 | 1015.8 |
| 20260903133005 | 61 | 147 | 0.0 | 0.0 | 0.00 | 0.29 | 0.29 | 96 | 1015.7 |
| 20260903132505 | 61 | 137 | 0.0 | 0.0 | 0.00 | 0.29 | 0.29 | 96 | 1015.7 |
| 20260903132003 | 61 | 183 | 0.0 | 1.0 | 0.00 | 0.29 | 0.29 | 96 | 1015.8 |
| 20260903131510 | 61 | 214 | 0.0 | 3.0 | 0.00 | 0.29 | 0.29 | 96 | 1015.9 |
| 20260903131005 | 61 | 226 | 1.0 | 3.0 | 0.00 | 0.29 | 0.29 | 96 | 1015.9 |
| 20260903130503 | 61 | 165 | 0.0 | 2.0 | 0.00 | 0.29 | 0.29 | 96 | 1015.8 |
| 20260903130015 | 61 | 165 | 0.0 | 2.0 | 0.00 | 0.29 | 0.29 | 96 | 1015.8 |
| 20260903125508 | 60 | 178 | 0.0 | 2.0 | 0.00 | 0.29 | 0.29 | 96 | 1015.8 |
| 20260903125006 | 60 | 163 | 0.0 | 0.0 | 0.00 | 0.29 | 0.29 | 96 | 1015.9 |
| 20260903124518 | 60 | 163 | 0.0 | 0.0 | 0.00 | 0.29 | 0.29 | 96 | 1016.0 |
| 20260903124007 | 60 | 150 | 0.0 | 0.0 | 0.00 | 0.29 | 0.29 | 96 | 1016.2 |
| 20260903123512 | 60 | 150 | 0.0 | 0.0 | 0.00 | 0.29 | 0.29 | 95 | 1016.3 |
| 20260903123026 | 60 | 150 | 0.0 | 0.0 | 0.00 | 0.29 | 0.29 | 95 | 1016.3 |
| 20260903122515 | 60 | 175 | 0.0 | 0.0 | 0.00 | 0.29 | 0.29 | 95 | 1016.3 |
| 20260903122004 | 60 | 185 | 0.0 | 0.0 | 0.00 | 0.29 | 0.29 | 95 | 1016.3 |
| 20260903121508 | 60 | 208 | 0.0 | 1.0 | 0.00 | 0.29 | 0.29 | 95 | 1016.3 |
| 20260903121007 | 60 | 181 | 0.0 | 3.0 | 0.00 | 0.29 | 0.29 | 95 | 1016.3 |
| 20260903120505 | 60 | 216 | 0.0 | 3.0 | 0.00 | 0.29 | 0.29 | 95 | 1016.4 |
| 20260903120011 | 60 | 179 | 0.0 | 3.0 | 0.01 | 0.29 | 0.29 | 95 | 1016.3 |
| 20260903115508 | 60 | 165 | 0.0 | 2.0 | 0.01 | 0.29 | 0.29 | 95 | 1016.4 |
| 20260903115003 | 60 | 161 | 0.0 | 2.0 | 0.01 | 0.29 | 0.29 | 95 | 1016.5 |
| 20260903114516 | 60 | 161 | 0.0 | 2.0 | 0.01 | 0.29 | 0.29 | 95 | 1016.5 |
| 20260903114008 | 60 | 150 | 0.0 | 2.0 | 0.01 | 0.29 | 0.29 | 95 | 1016.5 |
| 20260903113508 | 60 | 150 | 0.0 | 2.0 | 0.01 | 0.29 | 0.29 | 95 | 1016.6 |
| 20260903113024 | 60 | 150 | 0.0 | 2.0 | 0.01 | 0.29 | 0.29 | 95 | 1016.6 |
| 20260903112510 | 60 | 150 | 0.0 | 0.0 | 0.02 | 0.29 | 0.29 | 95 | 1016.5 |
| 20260903112014 | 60 | 150 | 0.0 | 0.0 | 0.02 | 0.29 | 0.29 | 95 | 1016.5 |
| 20260903111525 | 60 | 165 | 0.0 | 0.0 | 0.03 | 0.29 | 0.29 | 95 | 1016.5 |
| 20260903111017 | 60 | 165 | 0.0 | 0.0 | 0.04 | 0.29 | 0.29 | 95 | 1016.4 |
| 20260903110513 | 60 | 165 | 0.0 | 0.0 | 0.04 | 0.29 | 0.29 | 94 | 1016.4 |
| 20260903110007 | 60 | 165 | 0.0 | 0.0 | 0.03 | 0.28 | 0.28 | 94 | 1016.4 |
| 20260903105504 | 60 | 165 | 0.0 | 1.0 | 0.03 | 0.28 | 0.28 | 94 | 1016.4 |
| 20260903105007 | 60 | 165 | 0.0 | 1.0 | 0.03 | 0.28 | 0.28 | 94 | 1016.4 |
| 20260903104513 | 60 | 165 | 0.0 | 0.0 | 0.03 | 0.28 | 0.28 | 94 | 1016.4 |
| 20260903104007 | 60 | 165 | 0.0 | 0.0 | 0.03 | 0.28 | 0.28 | 94 | 1016.4 |
| 20260903103508 | 60 | 165 | 0.0 | 0.0 | 0.03 | 0.28 | 0.28 | 94 | 1016.4 |
| 20260903103020 | 60 | 165 | 0.0 | 2.0 | 0.03 | 0.28 | 0.28 | 94 | 1016.4 |
| 20260903102508 | 60 | 165 | 0.0 | 2.0 | 0.02 | 0.27 | 0.27 | 94 | 1016.5 |
| 20260903102022 | 59 | 164 | 0.0 | 2.0 | 0.02 | 0.27 | 0.27 | 94 | 1016.4 |
| 20260903101539 | 59 | 134 | 0.0 | 1.0 | 0.01 | 0.26 | 0.26 | 94 | 1016.5 |
| 20260903101013 | 59 | 133 | 0.0 | 0.0 | 0.00 | 0.25 | 0.25 | 94 | 1016.4 |
| 20260903100514 | 59 | 133 | 0.0 | 0.0 | 0.00 | 0.25 | 0.25 | 94 | 1016.5 |
| 20260903100033 | 59 | 133 | 0.0 | 0.0 | 0.00 | 0.25 | 0.25 | 94 | 1016.4 |
| 20260903095517 | 59 | 133 | 0.0 | 0.0 | 0.00 | 0.25 | 0.25 | 94 | 1016.4 |
| 20260903095017 | 59 | 133 | 0.0 | 0.0 | 0.00 | 0.25 | 0.25 | 94 | 1016.5 |
| 20260903094508 | 59 | 133 | 0.0 | 0.0 | 0.00 | 0.25 | 0.25 | 94 | 1016.4 |
| 20260903094004 | 59 | 133 | 0.0 | 0.0 | 0.00 | 0.25 | 0.25 | 93 | 1016.4 |
| 20260903093506 | 59 | 133 | 0.0 | 0.0 | 0.00 | 0.25 | 0.25 | 93 | 1016.4 |
| 20260903093013 | 59 | 133 | 0.0 | 0.0 | 0.00 | 0.25 | 0.25 | 93 | 1016.5 |
| 20260903092507 | 59 | 133 | 0.0 | 2.0 | 0.01 | 0.25 | 0.25 | 93 | 1016.6 |
| 20260903092009 | 59 | 133 | 0.0 | 2.0 | 0.02 | 0.25 | 0.25 | 93 | 1016.5 |
| 20260903091520 | 59 | 133 | 0.0 | 1.0 | 0.06 | 0.25 | 0.25 | 93 | 1016.6 |
| 20260903091010 | 59 | 133 | 0.0 | 0.0 | 0.08 | 0.25 | 0.25 | 93 | 1016.7 |
| 20260903090512 | 60 | 133 | 0.0 | 0.0 | 0.09 | 0.25 | 0.25 | 93 | 1016.8 |
| 20260903090027 | 60 | 133 | 0.0 | 0.0 | 0.10 | 0.25 | 0.25 | 93 | 1016.9 |
| 20260903085514 | 60 | 133 | 0.0 | 0.0 | 0.12 | 0.25 | 0.25 | 93 | 1016.9 |
| 20260903085013 | 60 | 133 | 0.0 | 0.0 | 0.18 | 0.25 | 0.25 | 93 | 1017.0 |
| 20260903084533 | 60 | 133 | 0.0 | 2.0 | 0.25 | 0.25 | 0.25 | 92 | 1016.9 |
| 20260903084016 | 60 | 133 | 0.0 | 3.0 | 0.25 | 0.25 | 0.25 | 92 | 1016.9 |
| 20260903083522 | 60 | 166 | 1.0 | 3.0 | 0.25 | 0.25 | 0.25 | 92 | 1016.9 |
| 20260903083018 | 60 | 127 | 0.0 | 3.0 | 0.25 | 0.25 | 0.25 | 92 | 1017.0 |
| 20260903082507 | 60 | 123 | 0.0 | 6.0 | 0.24 | 0.24 | 0.24 | 91 | 1017.1 |
| 20260903082007 | 61 | 24 | 1.0 | 6.0 | 0.23 | 0.23 | 0.23 | 92 | 1017.2 |
| 20260903081517 | 61 | 271 | 2.0 | 4.0 | 0.19 | 0.19 | 0.19 | 91 | 1017.2 |
| 20260903081009 | 61 | 191 | 1.0 | 4.0 | 0.17 | 0.17 | 0.17 | 91 | 1017.3 |
| 20260903080510 | 61 | 249 | 0.0 | 4.0 | 0.16 | 0.16 | 0.16 | 91 | 1017.5 |
| 20260903080037 | 61 | 184 | 1.0 | 4.0 | 0.15 | 0.15 | 0.15 | 91 | 1017.2 |
| 20260903075513 | 61 | 214 | 0.0 | 3.0 | 0.13 | 0.13 | 0.13 | 90 | 1017.1 |
| 20260903075018 | 62 | 117 | 0.0 | 5.0 | 0.07 | 0.07 | 0.07 | 90 | 1016.9 |
| 20260903074530 | 62 | 214 | 2.0 | 5.0 | 0.00 | 0.00 | 0.00 | 90 | 1016.9 |
| 20260903074013 | 62 | 160 | 2.0 | 5.0 | 0.00 | 0.00 | 0.00 | 89 | 1016.9 |
| 20260903073515 | 62 | 142 | 0.0 | 4.0 | 0.00 | 0.00 | 0.00 | 89 | 1016.9 |
| 20260903073032 | 62 | 181 | 1.0 | 4.0 | 0.00 | 0.00 | 0.00 | 89 | 1016.9 |
| 20260903072517 | 62 | 224 | 0.0 | 8.0 | 0.00 | 0.00 | 0.00 | 89 | 1017.0 |
| 20260903072018 | 62 | 179 | 2.0 | 8.0 | 0.00 | 0.00 | 0.00 | 88 | 1017.1 |
| 20260903071533 | 62 | 200 | 2.0 | 6.0 | 0.00 | 0.00 | 0.00 | 88 | 1017.1 |
| 20260903071010 | 62 | 230 | 1.0 | 5.0 | 0.00 | 0.00 | 0.00 | 87 | 1017.0 |
| 20260903070506 | 62 | 183 | 2.0 | 7.0 | 0.00 | 0.00 | 0.00 | 88 | 1017.1 |
| 20260903070020 | 62 | 213 | 2.0 | 7.0 | 0.00 | 0.00 | 0.00 | 88 | 1017.2 |
| 20260903065512 | 62 | 231 | 2.0 | 6.0 | 0.00 | 0.00 | 0.00 | 88 | 1017.3 |
| 20260903065011 | 62 | 200 | 2.0 | 7.0 | 0.00 | 0.00 | 0.00 | 89 | 1017.2 |
| 20260903064526 | 62 | 246 | 3.0 | 7.0 | 0.00 | 0.00 | 0.00 | 89 | 1017.3 |
| 20260903064014 | 62 | 237 | 1.0 | 8.0 | 0.00 | 0.00 | 0.00 | 90 | 1017.3 |
| 20260903063514 | 62 | 234 | 2.0 | 8.0 | 0.00 | 0.00 | 0.00 | 90 | 1017.5 |
| 20260903063029 | 62 | 221 | 1.0 | 5.0 | 0.00 | 0.00 | 0.00 | 90 | 1017.8 |
| 20260903062515 | 62 | 166 | 1.0 | 5.0 | 0.00 | 0.00 | 0.00 | 90 | 1018.1 |
| 20260903062015 | 62 | 166 | 2.0 | 5.0 | 0.00 | 0.00 | 0.00 | 90 | 1018.4 |
| 20260903061531 | 63 | 206 | 2.0 | 6.0 | 0.00 | 0.00 | 0.00 | 90 | 1018.5 |
| 20260903061021 | 63 | 225 | 1.0 | 6.0 | 0.00 | 0.00 | 0.00 | 90 | 1018.5 |
| 20260903060517 | 63 | 259 | 2.0 | 5.0 | 0.00 | 0.00 | 0.00 | 90 | 1018.6 |
| 20260903060029 | 63 | 168 | 2.0 | 5.0 | 0.00 | 0.01 | 0.00 | 89 | 1018.7 |
| 20260903055504 | 63 | 256 | 1.0 | 4.0 | 0.00 | 0.02 | 0.00 | 89 | 1018.8 |
| 20260903055003 | 63 | 255 | 0.0 | 5.0 | 0.00 | 0.02 | 0.00 | 89 | 1019.2 |
| 20260903054505 | 63 | 217 | 1.0 | 6.0 | 0.00 | 0.03 | 0.00 | 89 | 1019.1 |
| 20260903054003 | 63 | 208 | 1.0 | 6.0 | 0.00 | 0.03 | 0.00 | 89 | 1019.2 |
| 20260903053504 | 63 | 248 | 0.0 | 5.0 | 0.00 | 0.03 | 0.00 | 89 | 1019.2 |
| 20260903053006 | 63 | 250 | 2.0 | 5.0 | 0.00 | 0.03 | 0.00 | 89 | 1019.2 |
| 20260903052504 | 63 | 270 | 0.0 | 5.0 | 0.00 | 0.03 | 0.00 | 89 | 1019.1 |
| 20260903052004 | 63 | 251 | 1.0 | 5.0 | 0.00 | 0.03 | 0.00 | 89 | 1019.0 |
| 20260903051508 | 63 | 229 | 0.0 | 5.0 | 0.00 | 0.03 | 0.00 | 89 | 1019.1 |
| 20260903051004 | 63 | 229 | 0.0 | 6.0 | 0.00 | 0.03 | 0.00 | 89 | 1019.1 |
| 20260903050504 | 63 | 153 | 2.0 | 6.0 | 0.00 | 0.03 | 0.00 | 89 | 1019.2 |
| 20260903050022 | 63 | 251 | 1.0 | 6.0 | 0.00 | 0.03 | 0.00 | 89 | 1019.3 |
| 20260903045509 | 63 | 148 | 2.0 | 7.0 | 0.00 | 0.03 | 0.00 | 89 | 1019.1 |
| 20260903045002 | 63 | 164 | 2.0 | 7.0 | 0.00 | 0.03 | 0.00 | 89 | 1019.1 |
| 20260903044514 | 63 | 183 | 2.0 | 7.0 | 0.00 | 0.03 | 0.00 | 89 | 1019.2 |
| 20260903044003 | 63 | 263 | 3.0 | 7.0 | 0.00 | 0.03 | 0.00 | 89 | 1019.2 |
| 20260903043503 | 63 | 122 | 2.0 | 7.0 | 0.00 | 0.03 | 0.00 | 89 | 1019.3 |
| 20260903043017 | 63 | 182 | 3.0 | 7.0 | 0.00 | 0.03 | 0.00 | 89 | 1019.3 |
| 20260903042504 | 63 | 205 | 2.0 | 7.0 | 0.00 | 0.03 | 0.00 | 89 | 1019.3 |
| 20260903042007 | 63 | 182 | 3.0 | 7.0 | 0.00 | 0.03 | 0.00 | 89 | 1019.4 |
| 20260903041512 | 63 | 176 | 0.0 | 7.0 | 0.00 | 0.03 | 0.00 | 89 | 1019.4 |
| 20260903041003 | 63 | 198 | 2.0 | 7.0 | 0.00 | 0.03 | 0.00 | 89 | 1019.3 |
| 20260903040503 | 63 | 224 | 2.0 | 5.0 | 0.00 | 0.03 | 0.00 | 89 | 1019.4 |
| 20260903040012 | 63 | 172 | 1.0 | 5.0 | 0.00 | 0.03 | 0.00 | 89 | 1019.5 |
| 20260903035507 | 63 | 223 | 1.0 | 6.0 | 0.00 | 0.03 | 0.03 | 89 | 1019.5 |
| 20260903035004 | 63 | 193 | 1.0 | 6.0 | 0.00 | 0.03 | 0.03 | 89 | 1019.6 |
| 20260903034514 | 63 | 180 | 2.0 | 6.0 | 0.00 | 0.03 | 0.03 | 89 | 1019.5 |
| 20260903034010 | 63 | 184 | 0.0 | 4.0 | 0.00 | 0.03 | 0.03 | 89 | 1019.7 |
| 20260903033505 | 63 | 209 | 0.0 | 4.0 | 0.00 | 0.03 | 0.03 | 89 | 1019.8 |
| 20260903033003 | 63 | 179 | 1.0 | 3.0 | 0.00 | 0.03 | 0.03 | 89 | 1020.0 |
| 20260903032504 | 63 | 186 | 0.0 | 4.0 | 0.00 | 0.03 | 0.03 | 89 | 1020.1 |
| 20260903032002 | 63 | 186 | 1.0 | 4.0 | 0.00 | 0.03 | 0.03 | 89 | 1020.3 |
| 20260903031504 | 63 | 195 | 1.0 | 6.0 | 0.00 | 0.03 | 0.03 | 89 | 1020.4 |
| 20260903031004 | 63 | 195 | 1.0 | 6.0 | 0.00 | 0.03 | 0.03 | 89 | 1020.4 |
| 20260903030506 | 63 | 197 | 2.0 | 6.0 | 0.00 | 0.03 | 0.03 | 88 | 1020.4 |
| 20260903030007 | 63 | 192 | 1.0 | 5.0 | 0.00 | 0.03 | 0.03 | 88 | 1020.3 |
| 20260903025503 | 63 | 205 | 0.0 | 4.0 | 0.00 | 0.03 | 0.03 | 88 | 1020.4 |
| 20260903025003 | 63 | 195 | 0.0 | 4.0 | 0.00 | 0.03 | 0.03 | 88 | 1020.4 |
| 20260903024513 | 63 | 194 | 1.0 | 5.0 | 0.00 | 0.03 | 0.03 | 88 | 1020.4 |
| 20260903024004 | 63 | 216 | 2.0 | 5.0 | 0.00 | 0.03 | 0.03 | 88 | 1020.4 |
| 20260903023508 | 63 | 167 | 1.0 | 4.0 | 0.00 | 0.03 | 0.03 | 88 | 1020.2 |
| 20260903023018 | 63 | 155 | 0.0 | 5.0 | 0.00 | 0.03 | 0.03 | 88 | 1020.3 |
| 20260903022508 | 63 | 231 | 0.0 | 5.0 | 0.00 | 0.03 | 0.03 | 88 | 1020.2 |
| 20260903022012 | 63 | 169 | 2.0 | 4.0 | 0.00 | 0.03 | 0.03 | 88 | 1020.3 |
| 20260903021505 | 63 | 165 | 2.0 | 6.0 | 0.00 | 0.03 | 0.03 | 88 | 1020.4 |
| 20260903021004 | 63 | 221 | 1.0 | 6.0 | 0.00 | 0.03 | 0.03 | 88 | 1020.4 |
| 20260903020503 | 63 | 186 | 2.0 | 6.0 | 0.00 | 0.03 | 0.03 | 88 | 1020.4 |
| 20260903020004 | 63 | 221 | 2.0 | 6.0 | 0.00 | 0.03 | 0.03 | 88 | 1020.6 |
| 20260903015504 | 63 | 229 | 2.0 | 7.0 | 0.00 | 0.03 | 0.03 | 88 | 1020.5 |
| 20260903015003 | 63 | 224 | 2.0 | 7.0 | 0.00 | 0.03 | 0.03 | 88 | 1020.6 |
| 20260903014511 | 63 | 204 | 2.0 | 6.0 | 0.00 | 0.03 | 0.03 | 88 | 1020.7 |
| 20260903014006 | 63 | 158 | 1.0 | 6.0 | 0.00 | 0.03 | 0.03 | 88 | 1020.6 |
| 20260903013507 | 63 | 195 | 3.0 | 6.0 | 0.00 | 0.03 | 0.03 | 88 | 1020.6 |
| 20260903013016 | 63 | 193 | 2.0 | 5.0 | 0.00 | 0.03 | 0.03 | 88 | 1020.7 |
| 20260903012505 | 63 | 207 | 2.0 | 4.0 | 0.00 | 0.03 | 0.03 | 88 | 1020.7 |
| 20260903012010 | 63 | 237 | 1.0 | 7.0 | 0.00 | 0.03 | 0.03 | 88 | 1020.9 |
| 20260903011520 | 63 | 238 | 3.0 | 7.0 | 0.00 | 0.03 | 0.03 | 87 | 1020.7 |
| 20260903011020 | 63 | 141 | 1.0 | 6.0 | 0.00 | 0.03 | 0.03 | 87 | 1020.4 |
| 20260903010515 | 63 | 207 | 2.0 | 6.0 | 0.00 | 0.03 | 0.03 | 87 | 1020.4 |
| 20260903010004 | 63 | 226 | 1.0 | 6.0 | 0.00 | 0.03 | 0.03 | 87 | 1020.4 |
| 20260903005504 | 63 | 202 | 2.0 | 6.0 | 0.00 | 0.03 | 0.03 | 87 | 1020.5 |
| 20260903005006 | 63 | 96 | 1.0 | 5.0 | 0.00 | 0.03 | 0.03 | 87 | 1020.6 |
| 20260903004507 | 63 | 221 | 1.0 | 6.0 | 0.00 | 0.03 | 0.03 | 86 | 1020.5 |
| 20260903004005 | 63 | 229 | 2.0 | 6.0 | 0.00 | 0.03 | 0.03 | 86 | 1020.7 |
| 20260903003504 | 63 | 124 | 2.0 | 4.0 | 0.00 | 0.03 | 0.03 | 86 | 1020.5 |
| 20260903003012 | 63 | 209 | 1.0 | 6.0 | 0.00 | 0.03 | 0.03 | 86 | 1020.4 |
| 20260903002510 | 64 | 178 | 2.0 | 6.0 | 0.00 | 0.03 | 0.03 | 85 | 1020.4 |
| 20260903002009 | 64 | 126 | 1.0 | 4.0 | 0.00 | 0.03 | 0.03 | 85 | 1020.3 |
| 20260903001518 | 64 | 166 | 1.0 | 4.0 | 0.00 | 0.03 | 0.03 | 85 | 1020.3 |
| 20260903001007 | 64 | 190 | 2.0 | 4.0 | 0.00 | 0.03 | 0.03 | 85 | 1020.4 |
| 20260903000509 | 64 | 165 | 0.0 | 3.0 | 0.00 | 0.03 | 0.03 | 84 | 1020.5 |
| 20260903000024 | 64 | 165 | 1.0 | 3.0 | 0.00 | 0.03 | 0.03 | 84 | 1020.6 |
| 20260902235514 | 64 | 166 | 0.0 | 3.0 | 0.00 | 0.03 | 0.03 | 84 | 1020.7 |
| 20260902235012 | 64 | 167 | 0.0 | 3.0 | 0.00 | 0.03 | 0.03 | 84 | 1020.8 |
| 20260902234512 | 64 | 140 | 0.0 | 3.0 | 0.00 | 0.03 | 0.03 | 83 | 1020.9 |
| 20260902234007 | 64 | 202 | 0.0 | 4.0 | 0.00 | 0.03 | 0.03 | 83 | 1020.9 |
| 20260902233504 | 65 | 188 | 1.0 | 4.0 | 0.00 | 0.03 | 0.03 | 83 | 1020.9 |
| 20260902233010 | 65 | 165 | 1.0 | 5.0 | 0.00 | 0.03 | 0.03 | 83 | 1021.0 |
| 20260902232506 | 65 | 162 | 2.0 | 5.0 | 0.00 | 0.03 | 0.03 | 82 | 1021.2 |
| 20260902232007 | 65 | 93 | 2.0 | 5.0 | 0.00 | 0.03 | 0.03 | 82 | 1021.4 |
| 20260902231523 | 65 | 271 | 1.0 | 6.0 | 0.00 | 0.03 | 0.03 | 81 | 1021.5 |
| 20260902231008 | 65 | 200 | 1.0 | 7.0 | 0.00 | 0.03 | 0.03 | 81 | 1021.5 |
| 20260902230508 | 65 | 179 | 2.0 | 7.0 | 0.00 | 0.03 | 0.03 | 81 | 1021.6 |
| 20260902230022 | 65 | 167 | 1.0 | 4.0 | 0.00 | 0.03 | 0.03 | 81 | 1021.6 |
| 20260902225510 | 65 | 181 | 1.0 | 6.0 | 0.00 | 0.03 | 0.03 | 80 | 1021.6 |
| 20260902225011 | 66 | 192 | 2.0 | 6.0 | 0.00 | 0.03 | 0.03 | 80 | 1021.6 |
| 20260902224525 | 66 | 112 | 0.0 | 6.0 | 0.00 | 0.03 | 0.03 | 80 | 1021.7 |
| 20260902224014 | 66 | 148 | 2.0 | 6.0 | 0.00 | 0.03 | 0.03 | 80 | 1021.6 |
| 20260902223512 | 66 | 151 | 2.0 | 6.0 | 0.00 | 0.03 | 0.03 | 79 | 1021.7 |
| 20260902223031 | 66 | 195 | 3.0 | 6.0 | 0.00 | 0.03 | 0.03 | 79 | 1021.9 |
| 20260902222507 | 66 | 166 | 2.0 | 4.0 | 0.00 | 0.03 | 0.03 | 79 | 1021.8 |
| 20260902222007 | 66 | 191 | 2.0 | 4.0 | 0.00 | 0.03 | 0.03 | 79 | 1021.9 |
| 20260902221516 | 66 | 145 | 1.0 | 4.0 | 0.00 | 0.03 | 0.03 | 79 | 1021.9 |
| 20260902221009 | 66 | 165 | 1.0 | 4.0 | 0.00 | 0.03 | 0.03 | 78 | 1022.0 |
| 20260902220507 | 67 | 158 | 2.0 | 6.0 | 0.00 | 0.03 | 0.03 | 78 | 1021.9 |
| 20260902220016 | 67 | 150 | 2.0 | 6.0 | 0.00 | 0.03 | 0.03 | 77 | 1021.9 |
| 20260902215508 | 67 | 190 | 1.0 | 5.0 | 0.00 | 0.03 | 0.03 | 77 | 1022.0 |
| 20260902215009 | 67 | 162 | 2.0 | 7.0 | 0.00 | 0.03 | 0.03 | 77 | 1021.9 |
| 20260902214523 | 67 | 116 | 2.0 | 7.0 | 0.00 | 0.03 | 0.03 | 77 | 1021.9 |
| 20260902214012 | 67 | 174 | 1.0 | 3.0 | 0.00 | 0.03 | 0.03 | 77 | 1021.9 |
| 20260902213511 | 67 | 181 | 1.0 | 4.0 | 0.00 | 0.03 | 0.03 | 77 | 1022.1 |
| 20260902213026 | 68 | 124 | 1.0 | 4.0 | 0.00 | 0.03 | 0.03 | 77 | 1022.2 |
| 20260902212517 | 68 | 132 | 2.0 | 4.0 | 0.00 | 0.03 | 0.03 | 77 | 1022.1 |
| 20260902212015 | 68 | 65 | 1.0 | 5.0 | 0.00 | 0.03 | 0.03 | 77 | 1022.0 |
| 20260902211529 | 68 | 199 | 0.0 | 5.0 | 0.00 | 0.03 | 0.03 | 77 | 1022.0 |
| 20260902211004 | 68 | 164 | 2.0 | 6.0 | 0.00 | 0.03 | 0.03 | 76 | 1022.0 |
| 20260902210505 | 68 | 222 | 2.0 | 6.0 | 0.00 | 0.03 | 0.03 | 76 | 1022.0 |
| 20260902210016 | 68 | 87 | 3.0 | 6.0 | 0.00 | 0.03 | 0.03 | 75 | 1022.0 |
| 20260902205501 | 68 | 154 | 2.0 | 6.0 | 0.00 | 0.03 | 0.03 | 75 | 1021.9 |
| 20260902205003 | 68 | 158 | 2.0 | 7.0 | 0.00 | 0.03 | 0.03 | 75 | 1021.9 |
| 20260902204504 | 68 | 79 | 3.0 | 7.0 | 0.00 | 0.03 | 0.03 | 75 | 1021.9 |
| 20260902204002 | 68 | 255 | 2.0 | 11.0 | 0.00 | 0.03 | 0.03 | 74 | 1022.0 |
| 20260902203502 | 68 | 139 | 4.0 | 11.0 | 0.00 | 0.03 | 0.03 | 74 | 1021.9 |
| 20260902203002 | 68 | 205 | 3.0 | 11.0 | 0.00 | 0.03 | 0.03 | 75 | 1022.0 |
| 20260902202503 | 68 | 118 | 3.0 | 7.0 | 0.00 | 0.03 | 0.03 | 75 | 1021.9 |
| 20260902202003 | 68 | 58 | 3.0 | 8.0 | 0.00 | 0.03 | 0.03 | 74 | 1021.9 |
| 20260902201509 | 68 | 91 | 3.0 | 11.0 | 0.00 | 0.03 | 0.03 | 74 | 1022.0 |
| 20260902201004 | 68 | 207 | 3.0 | 11.0 | 0.00 | 0.03 | 0.03 | 74 | 1022.4 |
| 20260902200503 | 68 | 188 | 2.0 | 7.0 | 0.00 | 0.03 | 0.03 | 74 | 1022.3 |
| 20260902200014 | 68 | 229 | 2.0 | 7.0 | 0.00 | 0.03 | 0.03 | 75 | 1022.3 |
| 20260902195504 | 68 | 134 | 1.0 | 6.0 | 0.00 | 0.03 | 0.03 | 75 | 1022.3 |
| 20260902195009 | 68 | 182 | 2.0 | 6.0 | 0.00 | 0.03 | 0.03 | 76 | 1022.4 |
| 20260902194513 | 68 | 191 | 2.0 | 7.0 | 0.00 | 0.03 | 0.03 | 76 | 1022.4 |
| 20260902194003 | 68 | 165 | 1.0 | 7.0 | 0.00 | 0.03 | 0.03 | 76 | 1022.4 |
| 20260902193503 | 68 | 146 | 1.0 | 6.0 | 0.00 | 0.03 | 0.03 | 77 | 1022.5 |
| 20260902193004 | 68 | 166 | 3.0 | 6.0 | 0.00 | 0.03 | 0.03 | 77 | 1022.5 |
| 20260902192502 | 68 | 54 | 2.0 | 5.0 | 0.00 | 0.03 | 0.03 | 77 | 1022.6 |
| 20260902192004 | 68 | 112 | 1.0 | 4.0 | 0.00 | 0.03 | 0.03 | 77 | 1022.6 |
| 20260902191505 | 68 | 137 | 1.0 | 5.0 | 0.00 | 0.03 | 0.03 | 77 | 1022.6 |
| 20260902191003 | 68 | 162 | 1.0 | 6.0 | 0.00 | 0.03 | 0.03 | 77 | 1022.7 |
| 20260902190504 | 68 | 181 | 2.0 | 6.0 | 0.00 | 0.03 | 0.03 | 77 | 1022.7 |
| 20260902190009 | 68 | 222 | 0.0 | 5.0 | 0.00 | 0.03 | 0.03 | 78 | 1022.7 |
| 20260902185505 | 68 | 127 | 2.0 | 6.0 | 0.00 | 0.03 | 0.03 | 78 | 1022.6 |
| 20260902185004 | 68 | 165 | 2.0 | 6.0 | 0.00 | 0.03 | 0.03 | 77 | 1022.7 |
| 20260902184513 | 68 | 167 | 0.0 | 7.0 | 0.00 | 0.03 | 0.03 | 77 | 1022.7 |
| 20260902184006 | 68 | 161 | 1.0 | 7.0 | 0.00 | 0.03 | 0.03 | 77 | 1022.6 |
| 20260902183508 | 68 | 190 | 2.0 | 6.0 | 0.00 | 0.03 | 0.03 | 77 | 1022.5 |
| 20260902183014 | 68 | 149 | 2.0 | 7.0 | 0.00 | 0.03 | 0.03 | 77 | 1022.4 |
| 20260902182510 | 68 | 58 | 2.0 | 7.0 | 0.00 | 0.03 | 0.03 | 77 | 1022.2 |
| 20260902182002 | 68 | 148 | 3.0 | 7.0 | 0.00 | 0.03 | 0.03 | 78 | 1022.2 |
| 20260902181504 | 68 | 144 | 1.0 | 7.0 | 0.00 | 0.03 | 0.03 | 78 | 1022.2 |
| 20260902181003 | 68 | 160 | 1.0 | 6.0 | 0.00 | 0.03 | 0.03 | 78 | 1022.3 |
| 20260902180503 | 68 | 76 | 2.0 | 6.0 | 0.00 | 0.03 | 0.03 | 77 | 1022.5 |
| 20260902180014 | 68 | 176 | 2.0 | 6.0 | 0.00 | 0.03 | 0.03 | 77 | 1022.5 |
| 20260902175506 | 68 | 174 | 1.0 | 6.0 | 0.00 | 0.03 | 0.03 | 77 | 1022.6 |
| 20260902175006 | 68 | 164 | 3.0 | 6.0 | 0.00 | 0.03 | 0.03 | 77 | 1022.6 |
| 20260902174513 | 69 | 179 | 2.0 | 6.0 | 0.00 | 0.03 | 0.03 | 76 | 1022.6 |
| 20260902174007 | 69 | 214 | 2.0 | 6.0 | 0.00 | 0.03 | 0.03 | 76 | 1022.6 |
| 20260902173509 | 69 | 134 | 1.0 | 6.0 | 0.00 | 0.03 | 0.03 | 76 | 1022.5 |
| 20260902173014 | 69 | 182 | 0.0 | 6.0 | 0.00 | 0.03 | 0.03 | 75 | 1022.5 |
| 20260902172510 | 69 | 210 | 1.0 | 6.0 | 0.00 | 0.03 | 0.03 | 72 | 1022.7 |
| 20260902172010 | 69 | 167 | 2.0 | 6.0 | 0.00 | 0.03 | 0.03 | 71 | 1022.7 |
| 20260902171516 | 69 | 226 | 2.0 | 6.0 | 0.00 | 0.03 | 0.03 | 73 | 1022.7 |
| 20260902171008 | 69 | 59 | 3.0 | 6.0 | 0.00 | 0.03 | 0.03 | 74 | 1022.7 |
| 20260902170504 | 69 | 250 | 1.0 | 5.0 | 0.00 | 0.03 | 0.03 | 74 | 1022.7 |
| 20260902170005 | 68 | 177 | 2.0 | 8.0 | 0.00 | 0.03 | 0.03 | 74 | 1022.7 |
| 20260902165504 | 69 | 225 | 4.0 | 8.0 | 0.00 | 0.03 | 0.03 | 73 | 1022.8 |
| 20260902165003 | 69 | 188 | 3.0 | 7.0 | 0.00 | 0.03 | 0.03 | 74 | 1022.8 |
| 20260902164506 | 69 | 179 | 2.0 | 7.0 | 0.00 | 0.03 | 0.03 | 73 | 1022.8 |
| 20260902164003 | 69 | 174 | 3.0 | 8.0 | 0.00 | 0.03 | 0.03 | 74 | 1022.9 |
| 20260902163506 | 69 | 188 | 2.0 | 8.0 | 0.00 | 0.03 | 0.03 | 74 | 1022.9 |